Regional Weather Roundup
Issued by NWS

Home | Current Version | Previous Version | Text Only | Print | Product List | Glossary On
Versions: 1 2 3 4 5 6 7 8 9 10 11 12 13 14 15 16 17 18 19 20 21 22 23 24 25 26 27 28 29 30 31 32 33 34 35 36 37 38 39 40 41 42 43 44 45 46 47 48 49 50
000
ASUS46 KSTO 261915
RWRCA

NORTHERN AND CENTRAL CA REGIONAL WEATHER ROUNDUP
NATIONAL WEATHER SERVICE SACRAMENTO CA
1200 PM PDT WED APR 26 2017

NOTE: FAIR INDICATES FEW OR NO CLOUDS BELOW 12,000 FEET WITH NO
SIGNIFICANT WEATHER AND/OR OBSTRUCTIONS TO VISIBILITY.

CAZ001-003-262000-
NORTHWEST AREA

CITY           SKY/WX    TMP DP  RH WIND       PRES   REMARKS
CRESCENT CITY  LGT RAIN  54  53  97 W8        30.03R FOG
UKIAH          CLOUDY    61  55  81 CALM      30.02F
$$

CAZ006-505>513-262000-
BAY AREA

CITY           SKY/WX    TMP DP  RH WIND       PRES   REMARKS
SANTA ROSA     CLOUDY    62  55  77 W6        30.02S
SAN RAFAEL     N/A       58  MM  MM MISG
NAPA           CLOUDY    63  59  87 SW9       30.05S FOG
CONCORD        PTSUNNY   67  56  67 W14       30.06R
OAKLAND CITY   N/A      MM  MM  MM MISG
OAKLAND        CLOUDY    62  60  93 W13       30.08S
SAN FRAN CITY  N/A       60  MM  97 MISG
SAN FRAN ARPT  CLOUDY    63  56  78 SW14      30.08R
LIVERMORE      CLOUDY    60  55  83 SW9       30.06R
HAYWARD        CLOUDY    63  54  72 W10       30.08R
REDWOOD CITY   N/A       64  MM  74 MISG
MOFFETT ARPT   CLOUDY    64  56  75 N8        30.08R
SAN JOSE ARPT  CLOUDY    65  53  65 CALM      30.07S
$$
CAZ034-037-514>518-262000-
CENTRAL COAST

CITY           SKY/WX    TMP DP  RH WIND       PRES   REMARKS
WATSONVILLE    CLOUDY    61  58  90 S6        30.10S FOG
SALINAS        CLOUDY    64  56  75 VRB5      30.08F
MONTEREY       CLOUDY    63  55  75 W7        30.10S
SAN LUIS OBISP SUNNY     72  55  55 NW17      30.02F
SANTA MARIA    MOSUNNY   68  53  58 NW22G28   30.01F
$$
CAZ015-016-262000-
NORTHERN SACRAMENTO VALLEY

CITY           SKY/WX    TMP DP  RH WIND       PRES   REMARKS
REDDING        CLOUDY    59  55  87 S13       29.94F
RED BLUFF      CLOUDY    62  54  74 S18       29.96F
OROVILLE       LGT RAIN  62  55  77 S17       30.00F
$$
CAZ016>018-262000-
SOUTHERN SACRAMENTO VALLEY

CITY           SKY/WX    TMP DP  RH WIND       PRES   REMARKS
AUBURN         CLOUDY    55  55 100 MISG      30.04F VSB 1
BEALE AFB      CLOUDY    60  57  90 SE20      29.98F
LINCOLN        CLOUDY    59  54  82 S15       30.01F
MARYSVILLE     CLOUDY    65  56  72 S20G25    29.99F
SAC INTL ARPT  PTSUNNY   64  58  80 S20       30.00F
MATHER AIRPORT CLOUDY    59  59 100 S13       30.04S
DOWNTOWN SAC   N/A      MM  MM  MM MISG
SAC EXEC ARPT  CLOUDY    64  57  78 S8G20     30.03S
VACAVILLE      CLOUDY    67  56  67 SW13      30.02S
TRAVIS AFB     CLOUDY    65  57  73 SW20G25   30.01R
$$
CAZ019>021-262000-
SAN JOAQUIN VALLEY

CITY           SKY/WX    TMP DP  RH WIND       PRES   REMARKS
STOCKTON       CLOUDY    63  57  81 SW7       30.06R
MODESTO        CLOUDY    63  56  78 SW3       30.06R
MERCED         CLOUDY    66  53  63 NW6       30.05F
LEMOORE        PTSUNNY   71  47  42 NW12G18   30.05F
FRESNO         CLOUDY    67  52  58 NW5       30.05S
HANFORD        MOSUNNY   71  51  49 W9        30.05F
PORTERVILLE      N/A     69  51  52 W6        30.05F
BAKERSFIELD    MOSUNNY   72  49  44 NW9       30.04F
$$
CAZ011-012-071-262000-
NORTHERN MOUNTAINS

CITY           SKY/WX    TMP DP  RH WIND       PRES   REMARKS
YREKA          CLOUDY    56  48  74 VRB5      29.91R
MOUNT SHASTA   CLOUDY    53  47  79 VRB3      29.92S
ALTURAS        CLOUDY    48  45  89 W17G25    29.89S
$$
CAZ011-012-071-262000-
SIERRA NEVADA MTNS

CITY           SKY/WX    TMP DP  RH WIND       PRES   REMARKS
BLUE CANYON    LGT RAIN  43  43 100 S12       30.06R VSB 1/4
TRUCKEE        DRIZZLE   46  41  81 NW6       30.03R
TAHOE VLY ARPT CLOUDY    53  41  63 SW10G32   30.01S
MAMMOTH LAKES  PTSUNNY   60  33  35 W26G36    30.05R
$$



USA.gov is the U.S. government's official web portal to all federal, state and local government web resources and services.